Regional Weather Roundup
Issued by NWS

Home | Current Version | Previous Version | Graphics & Text | Print | Product List | Glossary Off
Versions: 1 2 3 4 5 6 7 8 9 10 11 12 13 14 15 16 17 18 19 20 21 22 23 24 25 26 27 28 29 30 31 32 33 34 35 36 37 38 39 40 41 42 43 44 45 46 47 48 49 50

000
ASUS43 KMKX 271510
RWRWI

WISCONSIN REGIONAL WEATHER ROUNDUP
NATIONAL WEATHER SERVICE MILWAUKEE/SULLIVAN WI
900 AM CST FRI FEB 27 2015

NOTE: "FAIR" INDICATES FEW OR NO CLOUDS BELOW 12,000 FEET WITH NO
SIGNIFICANT WEATHER AND/OR OBSTRUCTIONS TO VISIBILITY.

WIZ001-002-006>008-014>016-023>028-271600-
NORTHWEST WISCONSIN

CITY           SKY/WX    TMP DP  RH WIND       PRES   REMARKS
SUPERIOR ARPT  SUNNY     -3 -10  70 SW8       30.50S WCI -17
ASHLAND        SUNNY     -1 -11  62 SW8       30.47R WCI -15
HAYWARD        SUNNY     -5 -12  72 SW6       30.46R WCI -18
SIREN          SUNNY     -1  -8  71 NW3       30.51S
CUMBERLAND     SUNNY     -6 -13  71 W6        30.48R WCI -18
RICE LAKE      SUNNY     -4 -12  70 W5        30.51R WCI -15
CHETEK         SUNNY     -4 -10  73 CALM      30.51R
LADYSMITH      SUNNY     -8 -14  74 CALM      30.48R
EAU CLAIRE     SUNNY     -2 -11  65 W8        30.54R WCI -17
MENOMONIE      SUNNY      0  -9  63 W6        30.54S WCI -11
NEW RICHMOND   SUNNY      0  -7  74 W6        30.52S WCI -12
OSCEOLA        SUNNY      0  -7  74 W5        30.57R WCI -10
$$

WIZ003>005-009-010-017-018-271600-
NORTH CENTRAL WISCONSIN

CITY           SKY/WX    TMP DP  RH WIND       PRES   REMARKS
MANITOWISH WTR SUNNY     -5 -13  67 W3        30.36S
ARBOR VITAE    SUNNY     -1 -10  66 W5        30.36F WCI -12
WOODRUFF       SUNNY     -1 -10  66 W5        30.36F WCI -12
RHINELANDER    SUNNY     -4 -13  65 W5        30.38R WCI -15
EAGLE RIVER    SUNNY     -4 -13  65 SW6       30.36S WCI -17
LAND O LAKES   SUNNY      0  -9  65 W8        30.35F WCI -14
PHILLIPS       SUNNY     -4 -12  69 SW3       30.41R
TOMAHAWK       SUNNY     -2 -11  65 CALM      30.41S
MEDFORD        SUNNY     -5 -13  68 SW3       30.43R
MERRILL        SUNNY     -3 -12  63 W5        30.44R WCI -13
$$

WIZ029-030-035-036-043>047-271600-
CENTRAL WISCONSIN

CITY           SKY/WX    TMP DP  RH WIND       PRES   REMARKS
WAUSAU         SUNNY     -2 -12  62 NW8       30.45R WCI -17
MOSINEE        SUNNY      0  -9  65 SW6       30.47R WCI -12
MARSHFIELD     SUNNY     -3 -12  65 W7        30.47R WCI -16
STEVENS POINT  SUNNY     -1 -12  60 W3        30.49S
WAUPACA        SUNNY      6  -9  51 W7        30.52R WCI  -6
WAUTOMA        SUNNY      3 -10  54 W6        30.54R WCI  -8
WISC RAPIDS    SUNNY      0 -11  59 NW7       30.53R WCI -13
CAMP DOUGLAS   SUNNY      3  -6  66 W9        30.54R WCI -11
$$

WIZ011>013-019>022-031-037>040-048>050-271600-
NORTHEAST WISCONSIN

CITY           SKY/WX    TMP DP  RH WIND       PRES   REMARKS
ANTIGO         SUNNY     -3 -12  64 W7        30.41S WCI -16
SHAWANO        SUNNY      4  -9  54 W5        30.50S WCI  -5
OCONTO         SUNNY      4  -7  62 W5        30.50S WCI  -6
STURGEON BAY   SUNNY      3  -8  60 W8        30.50R WCI -10
GREEN BAY      SUNNY      5  -7  57 W6        30.51S WCI  -6
MANITOWOC      FAIR       8  -5  55 W8        30.53R WCI  -4
APPLETON       SUNNY      1  -9  60 W9        30.50R WCI -14
CLINTONVILLE   SUNNY      3  -9  55 W5        30.50S WCI  -6
OSHKOSH        SUNNY      3  -7  63 W7        30.52R WCI  -9
$$

WIZ032>034-041-042-053>061-271600-
SOUTHWEST WISCONSIN

CITY           SKY/WX    TMP DP  RH WIND       PRES   REMARKS
LA CROSSE      SUNNY     -3  -9  75 S7        30.60R WCI -16
SPARTA         SUNNY     -1  -9  68 W6        30.56S WCI -12
VIROQUA        SUNNY     -4  -9  78 CALM      30.52R
BOSCOBEL       SUNNY     -5 -11  75 SW6       30.62R WCI -18
PRAIRIE DU CHI SUNNY    -10 -16  74 CALM      30.63R
PLATTEVILLE    SUNNY     -8 -14  77 CALM      30.57R
$$

WIZ056-057-062-063-064-067-068-271600-
SOUTH CENTRAL WISCONSIN

CITY           SKY/WX    TMP DP  RH WIND       PRES   REMARKS
REEDSBURG      SUNNY      0  -8  70 CALM      30.55R
BARABOO/DELLS  SUNNY      2  -9  59 W6        30.54R WCI  -9
LONE ROCK      SUNNY     -5 -11  75 W3        30.59R
MINERAL POINT  SUNNY     -2  -9  71 W3        30.54R
MADISON        SUNNY      3  -8  60 NW5       30.55R WCI  -6
MIDDLETON      SUNNY      4  -8  56 W3        30.56R
WATERTOWN      SUNNY      3  -6  65 CALM      30.55R
MONROE         SUNNY      1  -8  66 W8        30.54R WCI -12
JANESVILLE     SUNNY      0  -6  78 CALM      30.56R
$$

WIZ051-052-058>065-066-070>072-271600-
SOUTHEAST WISCONSIN

CITY           SKY/WX    TMP DP  RH WIND       PRES   REMARKS
MILWAUKEE      SUNNY      8  -7  50 NW8       30.55R WCI  -4
WAUKESHA       SUNNY      1  -9  60 W8        30.54R WCI -12
MILWAUKEE/TIMM SUNNY      5  -8  56 W5        30.55R WCI  -4
RACINE         SUNNY      4  -8  57 W7        30.57R WCI  -8
BURLINGTON     SUNNY      3  -9  57 W5        30.55R WCI  -7
KENOSHA        SUNNY      2  -8  63 W8        30.55R WCI -12
FOND DU LAC    SUNNY      4  -8  57 W5        30.53R WCI  -5
SHEBOYGAN      SUNNY      6  -7  54 NW6       30.53R WCI  -4
WEST BEND      SUNNY      7  -6  56 W6        30.53R WCI  -3
JUNEAU         SUNNY      2  -8  62 W5        30.55R WCI  -7
$$

LSZ147-162-271600-
LAKE SUPERIOR

STATION/POSITION TIME  TEMP    WIND        PRES    WAVE
                       AIR SEA DIR/SP/G            HT/PER
                 (UTC) (F)     (DEG/KT/KT) (MB)    (FT/S)
DEVILS ISLAND    1500    2     240/ 16/ 20 1033.0S
PORT WING        1400   -4     200/  6/  9 1032.2R
SAXON HARBOR     1440    0     210/  5/  9 1032.2R
$$

LMZ867-665-643>646-271600-
LAKE MICHIGAN

STATION/POSITION TIME  TEMP    WIND        PRES    WAVE
                       AIR SEA DIR/SP/G            HT/PER
                 (UTC) (F)     (DEG/KT/KT) (MB)    (FT/S)
NORTHPORT PIER   1429    4     270/  7/ 12 1032.2R
KEWAUNEE LAKESHO 1400    2     290/  7/  9 1031.7R
SHEBOYGAN LAKESH 1500    7     260/  8/ 10 1036.1R
PORT WASHINGTON  1400    5     290/  7/ 10 1034.5
MILWAUKEE LAKESH 1400    5     300/  9/ 10   N/A
KENOSHA   LAKESH 1500    4     280/ 11/ 13 1034.5R
$$

TC  - TEMPERATURE IN CELSIUS
VSB - VISIBILITY IN STATUTE MILES
WCI - WIND CHILL INDEX
HX  - HEAT INDEX




USA.gov is the U.S. government's official web portal to all federal, state and local government web resources and services.